Regional Weather Roundup
Issued by NWS Wakefield, VA

Home | Current Version | Previous Version | Text Only | Print | Product List | Glossary Off
Versions: 1 2 3 4 5 6 7 8 9 10 11 12 13 14 15 16 17 18 19 20 21 22 23 24 25 26 27

000
ASUS41 KAKQ 181015
RWRAKQ

REGIONAL WEATHER ROUNDUP
NATIONAL WEATHER SERVICE WAKEFIELD VA
500 AM EST SAT FEB 18 2017

Note: "fair" indicates few or no clouds below 12,000 feet with no
significant weather and/or obstructions to visibility. * = Denotes
station may not report precipitation (e.g., rain,snow,etc.),
thunder or fog.

VAZ042-051-052>054-056-181100-
NORTHERN VIRGINIA

CITY           SKY/WX    TMP DP  RH WIND       PRES   REMARKS
WASH NATIONAL  CLEAR     35  29  78 NE5       29.89F
DULLES         CLOUDY    28  22  78 CALM      29.88F
FORT BELVOIR   CLEAR     29  24  82 CALM      29.89F
QUANTICO       CLEAR     32  28  85 W8        29.92R
FREDERICKSBRG* CLEAR     30  29  94 SW3       29.91R
STAFFORD*      CLOUDY    27  27  99 CALM      29.95R
WARRENTON      CLEAR     27  21  79 SW5       29.90R
CULPEPER*      CLOUDY    28  25  86 CALM      29.91R
MANASSAS*      CLOUDY    26  23  88 SW6       29.91R
LEESBURG*      CLOUDY    30  27  86 MISG      29.89S
WINCHESTER     CLOUDY    30  23  74 CALM      29.86S
FRONT ROYAL*   CLOUDY    30  27  86 CALM      29.86S
LURAY*         SUNNY     32  30  93 SW3       29.88R
$$

VAZ048-049-060>072-079>083-181100-
CENTRAL AND SOUTH CENTRAL VIRGINIA

CITY           SKY/WX    TMP DP  RH WIND       PRES   REMARKS
RICHMOND       PTCLDY    37  31  78 N6        29.89F
CHESTERFIELD*  FAIR      34  16  47 CALM      29.92R
PETERSBURG*    CLEAR     35  30  84 CALM      29.91R
HANOVER        CLEAR     31  26  82 CALM      29.92S
TAPPAHANNOCK*  CLEAR     31  31 100 CALM      29.91R
QUINTON*       FAIR      32  32  99 CALM      29.90R
CHARLOTTSVILLE PTCLDY    34  24  67 CALM      29.90R
GORDONSVILLE*  CLOUDY    29  26  85 CALM      29.90S
ORANGE*        CLOUDY    30  25  80 CALM      29.91S
LOUISA*        CLOUDY    30  28  93 CALM      29.90R
BUMPASS*       FAIR      30  28  92 CALM      29.91R
FARMVILLE*     PTCLDY    35  32  91 CALM      29.89S
CREWE*         FAIR      44  31  60 CALM      29.90S
FORT PICKETT*  FAIR      42  26  53 SW5       29.91R
CHASE CITY*    FAIR      42  29  61 CALM      29.89F
CLARKSVILLE*   FAIR      41  32  70 CALM      29.89F
SOUTH HILL*    CLEAR     47  32  55 CALM      29.96S
LAWRENCEVILLE* FAIR      44  32  63 CALM      29.90S
EMPORIA*       CLEAR     32  32 100 CALM      29.92S
$$

VAZ088>098-181100-
SOUTHEAST VIRGINIA

CITY           SKY/WX    TMP DP  RH WIND       PRES   REMARKS
NORFOLK        CLEAR     40  33  76 SW8       29.90S
VIRGINIA BEACH CLEAR     44  33  65 SW3       29.90S
NORFOLK NAVAL  CLEAR     48  34  58 SW6       29.92R
WEST POINT*    CLEAR     32  31  95 CALM      29.93R
SALUDA*        FAIR      34  33  97 CALM      29.90S
NEWPORT NEWS   CLEAR     42  33  70 CALM      29.90S
LANGLEY AFB    CLEAR     46  34  63 SW5       29.90R
FORT EUSTIS    CLEAR     41  33  72 CALM      29.88S
WILLIAMSBURG*  CLEAR     39  36  87 CALM      29.91S
HR EXEC AP*    FAIR      36  30  80 CALM      29.91R
FRANKLIN*      CLEAR     35  32  88 CALM      29.93R
US460-WAKEFLD  CLEAR     36  32  85 CALM      29.91R
$$

VAZ020-022-025-037-045-181100-
WEST CENTRAL AND SOUTHWEST VIRGINIA

CITY           SKY/WX    TMP DP  RH WIND       PRES   REMARKS
STAUNTON*      CLOUDY    30  26  85 CALM      29.91R
WAYNESBORO*    CLOUDY    53  26  35 SW8       29.89R
HOT SPRINGS VA CLOUDY    45  21  39 W18       29.91S
LYNCHBURG      CLEAR     40  28  62 CALM      29.91F
DANVILLE       CLEAR     38  32  79 W8        29.92R
SOUTH BOSTON*  FAIR      37  30  75 CALM      29.90S
MARTINSVILLE   CLEAR     30  26  86 CALM      29.96R
ROANOKE        CLEAR     50  27  40 NW5       29.93S
BLACKSBURG     CLEAR     37  29  72 NW3       29.97R
DUBLIN*        CLEAR     45  29  53 CALM      29.96R
MARION*        CLOUDY    38  29  69 W7        30.02R
HILLSVILLE*    CLOUDY    44  28  51 W6        29.96R
RICHLANDS*     FAIR      48  28  46 CALM      29.99R
WISE*          MOCLDY    46  28  49 CALM      29.98S
ABINGDON*      PTCLDY    38  29  70 CALM      30.00R
$$

MDZ021>025-VAZ099-100-181100-
SOUTHERN MARYLAND AND THE DELMARVA PENINSULA

CITY           SKY/WX    TMP DP  RH WIND       PRES   REMARKS
PATUXENT RIVER CLEAR     31  31 100 SW5       29.89R
BAY BRIDGE APT CLEAR     30  27  86 CALM      29.89S
LEONARDTOWN    CLEAR     32  32 100 CALM      29.90R
DOVER          CLEAR     31  26  81 CALM      29.87F
GEORGETOWN     CLEAR     32  26  78 CALM      29.89S
EASTON         CLEAR     31  26  81 CALM      29.92S
CAMBRIDGE      CLEAR     30  28  93 CALM      29.88F
SALISBURY      CLEAR     30  29  96 CALM      29.89R
OCEAN CITY     FOG       33  32  96 CALM      29.90S VSB 1/2
WALLOPS ISLAND CLEAR     39  38  96 S6        29.89F
ACCOMACK*      CLEAR     37  36  96 S5        29.90R
$$

NCZ012>017-030>032-181100-
NORTH CENTRAL AND EASTERN NORTH CAROLINA

CITY           SKY/WX    TMP DP  RH WIND       PRES   REMARKS
ROANOKE RAPIDS FAIR      37  34  87 S3        29.92R
RALEIGH        PTCLDY    43  34  70 CALM      29.93R
ELIZABETH CITY CLEAR     44  38  79 S5        29.93R
AHOSKIE*         N/A     37  34  87 CALM      29.92S
EDENTON*       CLEAR     47  41  80 SW3       29.94R
CURRITUCK*     CLEAR     44  39  81 CALM      29.93R
KILL DEVIL HLS NOT AVBL
MANTEO         CLEAR     46  43  90 SW5       29.94S
CAPE HATTERAS  CLEAR     57  51  80 SW8       29.95S
TARBORO*       NOT AVBL
GOLDSBORO      NOT AVBL
WASHINGTON     CLEAR     43  40  88 SW3       29.93S
GREENVILLE     CLEAR     39  36  87 CALM      29.95S
NEW BERN       CLEAR     47  41  80 SW7       29.96R
WILMINGTON     CLEAR     49  41  74 SW10      29.97S
$$

VAZ048-181100-
ELSEWHERE

CITY           SKY/WX    TMP DP  RH WIND       PRES   REMARKS
HARRISBURG PA  CLOUDY    30  24  78 E3        29.86S
BALTIMORE      CLEAR     28  23  81 SW3       29.88S
ANNAPOLIS      CLEAR     32  30  92 CALM      29.88S
ANDREWS AFB    CLEAR     29  25  84 NE3       29.87S
PHILADELPHIA   CLEAR     30  23  75 CALM      29.90S
HENDERSON NC   CLEAR     39  30  70 CALM      29.91R
GREENSBORO     PTCLDY    36  30  79 CALM      29.93R
ROCKY MOUNT    CLEAR     41  36  82 S5        29.92R
$$

VAZ100-181100-
MARINE

STATION/POSITION TIME  TEMP    WIND        PRES    WAVE   SWELL
                       AIR SEA DIR/SP/G            HT/PER HT/PER
                 (UTC) (F)     (DEG/KT/KT) (MB)    (FT/S) (FT/S)
CAPE MAY NJ      0942   37 38  100/  5/  7 1011.6F
LEWES DE         0948   40 39  160/  4/  5 1012.0S
OCEAN-CITY-INLET 0948   41 41  130/  3/  4 1012.7R
WACHAPREAGUE VA  0948   38 41  240/  2/  3 1012.5R
THOMAS POINT MD  1000   35 38  280/  3/  4   N/A
GOOSES REEF MD   1000   38 40   70/  2/  4 1012.5    0
COVE POINT MD    0948   38        CALM     1012.5R
SOLOMONS ISLAND  0948          290/  1/  2   N/A
BISHOPS HEAD MD  0948   40 39  160/  5/  6 1012.1S
PINEY POINT MD   0948           CALM  /  1   N/A
POTOMAC MD       1000   40 41  260/  4/  6 1011.2    0
CAMBRIDGE MD     0948   35 39   CALM  /  1 1011.3R
LEWISETTA VA     0948   36 40  300/  2/  2 1011.9R
RAPPAHANNOCK LGT 0948          190/ 10/ 11 1012.9R
YORK RVR RNG VA  0948   47     260/  9/  9 1011.8R
YORKTOWN VA      0948   48 44  250/  4/  6 1012.1R
JAMESTOWN VA     1000   46 47  210/  4/  6   N/A     0
DOMINION TERM VA 0948   47     280/  4/  5 1012.7R
KIPTOPEKE VA     0948      43  260/  1/  2   N/A
CHES BAY BRIDGE  0936   48 45  230/  7/  8 1012.4R
CAPE HENRY VA    0936   51     230/ 12/ 16   N/A
WILLOUBY STN VA  0936   48     230/  8/  9 1013.3R
S CRANEY ISL VA  0936   48     230/  5/  6 1012.4R
CAPE HENRY BUOY  0942      45                N/A     2/10
OFFSHORE WE BUOY 0951      46                N/A     2/10
64NM E OF VA BCH 0950   52 52  220/ 12/ 16 1013.0R   3/ 9   2/ 9
DUCK PIER NC     0936   49 46  220/ 11/ 13 1012.8R
44100 DUCK FRF   0905      47                N/A     2/10
44056 DUCK FRF   0930      47                N/A     2/ 9
OREGON INLET NC  0948          200/  7/  8   N/A
HATTERAS NC      0936   56 54  220/  6/  9 1013.8S
DIAMOND SHLS NC  0950   64 69  240/ 12/ 14 1014.5R   3/ 5   2/ 9
CAPE LOOKOUT NC  1000   54     250/  6/  7 1014.1F
$$




USA.gov is the U.S. government's official web portal to all federal, state and local government web resources and services.